{"data":{"norad_id":68899,"epoch":"2026-05-25T02:31:17.670432Z","epoch_age_seconds":56031,"freshness":"FRESH","line1":"1 68899U 26097E   26145.10506563 -.00324139  00000+0 -69877-2 0  9990","line2":"2 68899  97.2848 340.8729 0005798  85.6971 274.4940 15.45738210  3940","mean_motion":15.4573821,"eccentricity":0.0005798,"inclination_deg":97.2848,"raan_deg":340.8729,"arg_perigee_deg":85.6971,"mean_anomaly_deg":274.494,"bstar":-0.0069877,"rev_number":394,"period_min":93.159371404812,"perigee_km":425.26295175995,"apogee_km":433.15675116891,"semimajor_km":6807.3468514644,"source":"CELESTRAK","updated_at":"2026-05-25T13:38:22.066855Z"}}